Lethbridge,

5:42 AM MDT on September 24, 2017 (GMT -0600)
Lethbridge

Weather History for CYQL - November, 2012

Change the Weather History Date:

Tuesday, November 6, 2012

  Actual Average Record
Temperature  
Mean Temperature 41 °F -  
Max Temperature 59 °F 42 °F 68 °F (1997)
Min Temperature 31 °F 20 °F -13 °F (2014)
Degree Days  
Heating Degree Days 24    
Moisture  
Dew Point 34 °F    
Average Humidity 75    
Maximum Humidity 100    
Minimum Humidity 48    
Precipitation  
Precipitation 0.00 in - - ()
Sea Level Pressure  
Sea Level Pressure 30.02 in    
Wind  
Wind Speed 7 mph ()    
Max Wind Speed 33 mph    
Max Gust Speed 39 mph    
Visibility 11.2 miles    
Events Rain    
Averages and records for this station are not official NWS values.
T = Trace of Precipitation, MM = Missing Value Source: Averaged Metar Reports

Daily Weather History Graph

Daily Weather History Graph

Search for Another Location

Airport or City:

Trip Planner

Search our weather history database for the weather conditions in past years. The results will help you decide how hot, cold, wet, or windy it might be!

Date:

Astronomy

Nov. 06, 2012 Rise Set
Actual Time 7:29 AM MST 4:59 PM MST
Civil Twilight 6:54 AM MST 5:34 PM MST
Nautical Twilight 6:16 AM MST 6:12 PM MST
Astronomical Twilight 5:39 AM MST 6:49 PM MST
Moon 11:50 PM MST (11/6) 1:18 PM MST (11/6)
Length of Visible Light 10h 39m
Length of Day
9h 30m
Waning Gibbous, 52% of the Moon is Illuminated
Nov 6
Waning Gibbous
Nov 6
Last Quarter
Nov 13
New
Nov 20
First Quarter
Nov 28
Full

Hourly Weather History & Observations

Time (MST) Temp. Windchill Dew Point Humidity Pressure Visibility Wind Dir Wind Speed Gust Speed Precip Events Conditions
12:00 AM 46.4 °F 40.7 °F 28.4 °F 50% 30.14 in 9.0 mi West 12.7 mph 18.4 mph N/A   Overcast
1:00 AM 42.8 °F 37.5 °F 28.4 °F 57% 30.18 in 9.0 mi NNW 9.2 mph - N/A   Overcast
2:00 AM 39.2 °F - 26.6 °F 61% 30.18 in 9.0 mi NNW 2.3 mph - N/A   Overcast
3:00 AM 35.6 °F 30.7 °F 26.6 °F 70% 30.20 in 9.0 mi WNW 5.8 mph - N/A   Mostly Cloudy
4:00 AM 37.4 °F 31.4 °F 30.2 °F 75% 30.22 in 9.0 mi NE 8.1 mph - N/A   Overcast
5:00 AM 36 °F - 31 °F 76% 30.25 in 10 mi NNE 6.9 mph - -   Overcast
5:00 AM 35.6 °F 30.7 °F 32.0 °F 87% 30.25 in 9.0 mi NNE 5.8 mph - N/A   Overcast
6:00 AM 35.6 °F 32.8 °F 32.0 °F 87% 30.22 in 15.0 mi North 3.5 mph - N/A   Overcast
7:00 AM 33.8 °F 29.6 °F 30.2 °F 87% 30.22 in 15.0 mi East 4.6 mph - N/A   Mostly Cloudy
8:00 AM 32.0 °F - 30.2 °F 93% 30.21 in 30.0 mi Calm Calm - N/A   Mostly Cloudy
9:00 AM 35.6 °F 32.8 °F 32.0 °F 87% 30.18 in 40.0 mi North 3.5 mph - N/A   Mostly Cloudy
10:00 AM 39.2 °F 35.0 °F 32.0 °F 75% 30.14 in 40.0 mi East 5.8 mph - N/A   Mostly Cloudy
11:00 AM 41 °F - 33 °F 66% 30.12 in 10 mi East 4.6 mph - -  
11:00 AM 41.0 °F 38.0 °F 33.8 °F 76% 30.11 in 40.0 mi East 4.6 mph - N/A   Mostly Cloudy
12:00 PM 46.4 °F 43.5 °F 33.8 °F 62% 30.06 in 40.0 mi ENE 5.8 mph - N/A   Scattered Clouds
1:00 PM 48.2 °F - 33.8 °F 58% 30.02 in 40.0 mi ENE 9.2 mph - N/A   Mostly Cloudy
2:00 PM 46.4 °F 41.1 °F 37.4 °F 71% 30.00 in 40.0 mi NNE 11.5 mph - N/A   Mostly Cloudy
3:00 PM 48.2 °F - 37.4 °F 66% 29.97 in 30.0 mi NE 8.1 mph - N/A   Overcast
4:00 PM 48.2 °F - 39.2 °F 71% 29.94 in 30.0 mi NNE 6.9 mph - N/A   Overcast
5:00 PM 44 °F - 37 °F 68% 29.93 in 10 mi North 4.6 mph - -  
5:00 PM 44.6 °F 42.2 °F 37.4 °F 76% 29.93 in 30.0 mi North 4.6 mph - N/A   Overcast
6:00 PM 41.0 °F 37.1 °F 35.6 °F 81% 29.91 in 15.0 mi NNE 5.8 mph - N/A   Overcast
7:00 PM 37.4 °F - 35.6 °F 93% 29.89 in 15.0 mi Variable 2.3 mph - N/A   Mostly Cloudy
8:00 PM 32.0 °F - 32.0 °F 100% 29.86 in 15.0 mi SSW 2.3 mph - N/A   Scattered Clouds
9:00 PM 32.0 °F 27.5 °F 32.0 °F 100% 29.83 in 15.0 mi SSW 4.6 mph - N/A   Scattered Clouds
10:00 PM 37.4 °F 29.3 °F 35.6 °F 93% 29.80 in 15.0 mi SW 12.7 mph - N/A   Mostly Cloudy
10:53 PM 44.6 °F 39.2 °F 37.4 °F 76% 29.77 in 9.0 mi South 10.4 mph - N/A Rain Light Rain
11:00 PM 48 °F - 40 °F 65% 29.76 in 10 mi SSW 11.5 mph - - Rain Light Rain
11:00 PM 48.2 °F - 39.2 °F 71% 29.76 in 9.0 mi WSW 11.5 mph - N/A Rain Light Rain
11:04 PM 51.8 °F - 41.0 °F 67% 29.75 in 9.0 mi SW 20.7 mph - N/A   Overcast
11:32 PM 59.0 °F - 39.2 °F 48% 29.73 in 9.0 mi WSW 33.4 mph 39.1 mph N/A   Overcast